AAY2972 KSFB-KHTS

Flight info

Callsign AAY2972
Flight time 1h 47m
Altitude 34000
Route RDSOX JFRYS BRUTS Q118 THRSR/N0446F350 VXV
Aircraft A320/M-SDE3FGHIRWY/LB1

Departure

Time 2026-05-07 23:07
Airport Orlando Sanford International Airport (KSFB)

Arrival

Time 2026-05-08 00:54
Airport Tri-State Airport / Milton J. Ferguson Field (KHTS)
Time Latitude Longitude Altitude Speed Heading
2026-05-07 22:10 28.77670 -81.24284 64 ft 0 kts 260°
2026-05-07 22:53 28.77671 -81.24278 64 ft 3 kts 261°
2026-05-07 22:54 28.77674 -81.24248 59 ft 4 kts 274°
2026-05-07 22:54 28.77668 -81.24220 57 ft 4 kts 306°
2026-05-07 22:54 28.77653 -81.24208 57 ft 1 kts 359°
2026-05-07 22:54 28.77649 -81.24208 59 ft 0 kts 359°
2026-05-07 22:58 28.77652 -81.24208 58 ft 1 kts 360°
2026-05-07 22:58 28.77676 -81.24208 56 ft 6 kts 360°
2026-05-07 22:59 28.77728 -81.24208 60 ft 9 kts
2026-05-07 22:59 28.77764 -81.24141 64 ft 14 kts 91°
2026-05-07 22:59 28.77764 -81.24006 64 ft 19 kts 89°
2026-05-07 22:59 28.77763 -81.23836 64 ft 23 kts 88°
2026-05-07 23:00 28.77764 -81.23669 64 ft 20 kts 90°
2026-05-07 23:00 28.77764 -81.23523 63 ft 15 kts 90°
2026-05-07 23:00 28.77814 -81.23476 61 ft 11 kts
2026-05-07 23:00 28.77846 -81.23410 64 ft 10 kts 88°
2026-05-07 23:01 28.77847 -81.23334 64 ft 10 kts 90°
2026-05-07 23:01 28.77847 -81.23260 74 ft 10 kts 90°
2026-05-07 23:01 28.77847 -81.23170 64 ft 13 kts 90°
2026-05-07 23:01 28.77847 -81.23057 64 ft 15 kts 90°
2026-05-07 23:02 28.77847 -81.22927 64 ft 17 kts 90°
2026-05-07 23:02 28.77853 -81.22823 61 ft 11 kts 70°
2026-05-07 23:02 28.77915 -81.22795 61 ft 11 kts 357°
2026-05-07 23:02 28.78003 -81.22790 59 ft 14 kts 30°
2026-05-07 23:03 28.78013 -81.22686 62 ft 13 kts 91°
2026-05-07 23:03 28.78014 -81.22592 64 ft 11 kts 89°
2026-05-07 23:03 28.78013 -81.22508 64 ft 10 kts 90°
2026-05-07 23:03 28.78013 -81.22434 61 ft 9 kts 90°
2026-05-07 23:04 28.78013 -81.22361 63 ft 9 kts 89°
2026-05-07 23:04 28.78013 -81.22286 62 ft 10 kts 90°
2026-05-07 23:04 28.78017 -81.22204 63 ft 10 kts 73°
2026-05-07 23:04 28.78072 -81.22173 63 ft 9 kts
2026-05-07 23:05 28.78080 -81.22173 59 ft 0 kts
2026-05-07 23:06 28.78082 -81.22173 59 ft 2 kts
2026-05-07 23:06 28.78116 -81.22172 64 ft 7 kts
2026-05-07 23:06 28.78166 -81.22183 60 ft 7 kts 324°
2026-05-07 23:06 28.78178 -81.22235 67 ft 7 kts 271°
2026-05-07 23:07 28.78178 -81.22387 58 ft 47 kts 270°
2026-05-07 23:07 28.78177 -81.23023 61 ft 111 kts 270°
2026-05-07 23:07 28.78176 -81.24085 75 ft 157 kts 270°
2026-05-07 23:07 28.78155 -81.25331 656 ft 158 kts 269°
2026-05-07 23:08 28.78110 -81.26602 1260 ft 161 kts 267°
2026-05-07 23:08 28.78054 -81.27882 1879 ft 164 kts 268°
2026-05-07 23:08 28.78297 -81.29218 2124 ft 187 kts 300°
2026-05-07 23:08 28.79325 -81.30286 2363 ft 217 kts 327°
2026-05-07 23:09 28.80827 -81.30931 2686 ft 244 kts 341°
2026-05-07 23:09 28.82535 -81.31461 3227 ft 262 kts 343°
2026-05-07 23:09 28.84322 -81.31985 4012 ft 268 kts 343°
2026-05-07 23:09 28.86145 -81.32510 4847 ft 273 kts 342°
2026-05-07 23:10 28.87994 -81.33053 5678 ft 276 kts 342°
2026-05-07 23:10 28.89859 -81.33637 6533 ft 278 kts 341°
2026-05-07 23:10 28.91699 -81.34325 7312 ft 280 kts 336°
2026-05-07 23:10 28.93520 -81.35146 8087 ft 283 kts 335°
2026-05-07 23:11 28.95346 -81.36006 8879 ft 285 kts 333°
2026-05-07 23:11 28.97175 -81.36881 9681 ft 286 kts 333°
2026-05-07 23:11 28.99018 -81.37767 10334 ft 292 kts 333°
2026-05-07 23:11 29.00943 -81.38696 10509 ft 315 kts 333°
2026-05-07 23:12 29.03032 -81.39705 10646 ft 337 kts 333°
2026-05-07 23:12 29.05252 -81.40769 10958 ft 352 kts 334°
2026-05-07 23:12 29.07531 -81.41851 11513 ft 357 kts 333°
2026-05-07 23:12 29.09903 -81.42779 12103 ft 366 kts 343°
2026-05-07 23:13 29.12453 -81.43164 12710 ft 374 kts 351°
2026-05-07 23:13 29.15058 -81.43391 13301 ft 378 kts 351°
2026-05-07 23:13 29.17691 -81.43633 13862 ft 382 kts 350°
2026-05-07 23:13 29.20352 -81.43889 14410 ft 385 kts 350°
2026-05-07 23:14 29.23028 -81.44152 14998 ft 386 kts 349°
2026-05-07 23:14 29.25708 -81.44416 15594 ft 387 kts 349°
2026-05-07 23:14 29.28401 -81.44675 16208 ft 388 kts 349°
2026-05-07 23:14 29.31098 -81.44930 16807 ft 390 kts 349°
2026-05-07 23:15 29.33805 -81.45186 17410 ft 391 kts 349°
2026-05-07 23:15 29.36526 -81.45441 18007 ft 393 kts 348°
2026-05-07 23:15 29.39254 -81.45698 18551 ft 394 kts 348°
2026-05-07 23:15 29.42002 -81.45960 19031 ft 397 kts 348°
2026-05-07 23:16 29.44763 -81.46228 19501 ft 400 kts 348°
2026-05-07 23:16 29.47552 -81.46500 19959 ft 403 kts 348°
2026-05-07 23:16 29.50354 -81.46771 20402 ft 406 kts 348°
2026-05-07 23:16 29.53148 -81.47040 20833 ft 409 kts 348°
2026-05-07 23:17 29.55999 -81.47311 21275 ft 412 kts 348°
2026-05-07 23:17 29.58867 -81.47582 21691 ft 415 kts 348°
2026-05-07 23:17 29.61758 -81.47850 22114 ft 418 kts 348°
2026-05-07 23:17 29.64671 -81.48113 22511 ft 421 kts 348°
2026-05-07 23:18 29.67599 -81.48374 22912 ft 424 kts 348°
2026-05-07 23:18 29.70557 -81.48639 23285 ft 427 kts 348°
2026-05-07 23:18 29.73525 -81.48903 23628 ft 429 kts 348°
2026-05-07 23:18 29.76513 -81.49169 23935 ft 432 kts 348°
2026-05-07 23:19 29.79517 -81.49439 24235 ft 434 kts 348°
2026-05-07 23:19 29.82530 -81.49714 24529 ft 436 kts 347°
2026-05-07 23:19 29.85563 -81.49994 24847 ft 437 kts 347°
2026-05-07 23:19 29.88582 -81.50347 25157 ft 434 kts 342°
2026-05-07 23:20 29.90525 -81.50840 25353 ft 428 kts 336°
2026-05-07 23:20 29.93368 -81.51846 25639 ft 429 kts 335°
2026-05-07 23:20 29.96221 -81.52873 25930 ft 430 kts 335°
2026-05-07 23:20 29.99085 -81.53902 26211 ft 432 kts 335°
2026-05-07 23:21 30.01966 -81.54935 26491 ft 434 kts 335°
2026-05-07 23:21 30.04853 -81.55971 26768 ft 436 kts 335°
2026-05-07 23:21 30.07760 -81.57013 27033 ft 438 kts 335°
2026-05-07 23:21 30.10674 -81.58055 27294 ft 439 kts 335°
2026-05-07 23:22 30.13601 -81.59100 27578 ft 441 kts 335°
2026-05-07 23:22 30.16546 -81.60153 27817 ft 443 kts 335°
2026-05-07 23:22 30.19459 -81.61195 28050 ft 445 kts 335°
2026-05-07 23:22 30.22426 -81.62254 28289 ft 446 kts 335°
2026-05-07 23:23 30.25397 -81.63316 28527 ft 448 kts 335°
2026-05-07 23:23 30.28383 -81.64384 28754 ft 450 kts 335°
2026-05-07 23:23 30.31378 -81.65463 28974 ft 451 kts 335°
2026-05-07 23:23 30.34366 -81.66542 29278 ft 450 kts 335°
2026-05-07 23:24 30.37352 -81.67622 29539 ft 450 kts 335°
2026-05-07 23:24 30.40347 -81.68704 29823 ft 450 kts 335°
2026-05-07 23:24 30.43330 -81.69782 30107 ft 449 kts 335°
2026-05-07 23:24 30.46314 -81.70858 30363 ft 448 kts 335°
2026-05-07 23:25 30.49289 -81.71929 30623 ft 448 kts 335°
2026-05-07 23:25 30.52262 -81.72998 30874 ft 447 kts 335°
2026-05-07 23:25 30.55230 -81.74069 31143 ft 446 kts 335°
2026-05-07 23:25 30.58188 -81.75142 31419 ft 445 kts 334°
2026-05-07 23:26 30.61149 -81.76214 31684 ft 445 kts 335°
2026-05-07 23:26 30.64190 -81.77021 31946 ft 452 kts 342°
2026-05-07 23:26 30.67292 -81.77640 32228 ft 452 kts 342°
2026-05-07 23:26 30.70385 -81.78256 32523 ft 451 kts 342°
2026-05-07 23:27 30.76576 -81.79487 33005 ft 451 kts 342°
2026-05-07 23:27 30.79669 -81.80105 33270 ft 451 kts 342°
2026-05-07 23:27 30.82722 -81.80718 33535 ft 450 kts 341°
2026-05-07 23:28 30.85810 -81.81338 33809 ft 450 kts 341°
2026-05-07 23:28 30.88891 -81.81956 34064 ft 449 kts 341°
2026-05-07 23:28 30.91970 -81.82575 34311 ft 448 kts 341°
2026-05-07 23:28 30.95039 -81.83194 34551 ft 447 kts 341°
2026-05-07 23:29 30.98102 -81.83811 34800 ft 446 kts 341°
2026-05-07 23:29 31.01161 -81.84429 34929 ft 447 kts 340°
2026-05-07 23:29 31.07302 -81.85665 34947 ft 448 kts 341°
2026-05-07 23:30 31.13447 -81.86903 34950 ft 448 kts 341°
2026-05-07 23:30 31.19592 -81.88142 34948 ft 448 kts 340°
2026-05-07 23:31 31.25737 -81.89384 34960 ft 448 kts 340°
2026-05-07 23:31 31.31871 -81.90630 35000 ft 447 kts 339°
2026-05-07 23:32 31.38007 -81.91873 35004 ft 447 kts 339°
2026-05-07 23:32 31.44097 -81.93106 35004 ft 447 kts 339°
2026-05-07 23:33 31.50259 -81.94356 35008 ft 446 kts 339°
2026-05-07 23:33 31.56342 -81.95601 35032 ft 446 kts 339°
2026-05-07 23:34 31.62454 -81.96843 35024 ft 445 kts 339°
2026-05-07 23:34 31.68562 -81.98082 34967 ft 444 kts 339°
2026-05-07 23:35 31.74656 -81.99322 34961 ft 444 kts 339°
2026-05-07 23:35 31.80739 -82.00565 34963 ft 444 kts 339°
2026-05-07 23:36 31.86839 -82.01751 34990 ft 450 kts 343°
2026-05-07 23:36 31.93181 -82.02025 34979 ft 457 kts 346°
2026-05-07 23:37 31.99490 -82.02234 34971 ft 457 kts 346°
2026-05-07 23:37 32.05842 -82.02445 34966 ft 456 kts 346°
2026-05-07 23:38 32.12187 -82.02668 34982 ft 456 kts 346°
2026-05-07 23:38 32.18540 -82.02899 34954 ft 456 kts 346°
2026-05-07 23:39 32.24887 -82.03118 34945 ft 456 kts 346°
2026-05-07 23:39 32.31239 -82.03332 34937 ft 456 kts 346°
2026-05-07 23:40 32.37590 -82.03549 34992 ft 456 kts 345°
2026-05-07 23:40 32.43891 -82.03742 34973 ft 455 kts 345°
2026-05-07 23:41 32.50188 -82.04160 34957 ft 451 kts 342°
2026-05-07 23:41 32.56427 -82.04802 34941 ft 449 kts 342°
2026-05-07 23:42 32.62664 -82.05482 34918 ft 450 kts 342°
2026-05-07 23:42 32.68903 -82.06112 34948 ft 450 kts 342°
2026-05-07 23:43 32.75158 -82.06713 34925 ft 451 kts 342°
2026-05-07 23:43 32.81406 -82.07327 34924 ft 450 kts 342°
2026-05-07 23:44 32.87610 -82.07943 34916 ft 450 kts 342°
2026-05-07 23:44 32.93860 -82.08562 34943 ft 451 kts 341°
2026-05-07 23:45 33.00108 -82.09179 34933 ft 451 kts 341°
2026-05-07 23:45 33.06358 -82.09794 34919 ft 450 kts 341°
2026-05-07 23:46 33.12614 -82.10410 34914 ft 451 kts 341°
2026-05-07 23:46 33.18861 -82.11028 34910 ft 451 kts 341°
2026-05-07 23:47 33.25065 -82.11648 34908 ft 451 kts 341°
2026-05-07 23:47 33.31317 -82.12266 34903 ft 450 kts 341°
2026-05-07 23:48 33.37569 -82.12880 34923 ft 450 kts 341°
2026-05-07 23:48 33.43819 -82.13501 34968 ft 450 kts 341°
2026-05-07 23:49 33.50063 -82.14135 34936 ft 450 kts 341°
2026-05-07 23:49 33.56311 -82.14767 34932 ft 451 kts 341°
2026-05-07 23:50 33.62563 -82.15384 34930 ft 451 kts 341°
2026-05-07 23:50 33.68811 -82.16006 34927 ft 452 kts 342°
2026-05-07 23:51 33.72016 -82.15975 34966 ft 471 kts 352°
2026-05-07 23:51 33.75293 -82.15440 34957 ft 477 kts 354°
2026-05-07 23:51 33.81810 -82.14278 34943 ft 477 kts 354°
2026-05-07 23:52 33.88366 -82.13109 34930 ft 476 kts 354°
2026-05-07 23:52 33.94919 -82.11963 34927 ft 476 kts 354°
2026-05-07 23:53 34.01467 -82.10823 34930 ft 475 kts 354°
2026-05-07 23:53 34.08005 -82.09676 34920 ft 474 kts 354°
2026-05-07 23:54 34.14540 -82.08526 34922 ft 475 kts 354°
2026-05-07 23:54 34.21084 -82.07365 34925 ft 475 kts 354°
2026-05-07 23:55 34.27629 -82.06206 34964 ft 475 kts 354°
2026-05-07 23:55 34.34130 -82.05061 34953 ft 475 kts 354°
2026-05-07 23:56 34.40664 -82.03903 34936 ft 475 kts 354°
2026-05-07 23:56 34.47197 -82.02738 34929 ft 474 kts 354°
2026-05-07 23:57 34.53683 -82.01576 34925 ft 468 kts 354°
2026-05-07 23:57 34.60117 -82.00438 34919 ft 467 kts 354°
2026-05-07 23:58 34.66539 -81.99309 34905 ft 466 kts 354°
2026-05-07 23:58 34.72964 -81.98163 34972 ft 467 kts 354°
2026-05-07 23:59 34.79427 -81.97012 34899 ft 471 kts 354°
2026-05-07 23:59 34.85921 -81.95837 34895 ft 472 kts 354°
2026-05-08 00:00 34.92425 -81.94664 34890 ft 473 kts 354°
2026-05-08 00:00 34.98944 -81.93501 34939 ft 474 kts 353°
2026-05-08 00:01 35.02194 -81.93014 34933 ft 463 kts 347°
2026-05-08 00:01 35.05345 -81.93066 34921 ft 443 kts 338°
2026-05-08 00:01 35.11361 -81.94151 34899 ft 436 kts 335°
2026-05-08 00:02 35.17322 -81.95254 34897 ft 436 kts 336°
2026-05-08 00:02 35.23327 -81.96350 34916 ft 436 kts 336°
2026-05-08 00:03 35.29311 -81.97427 34954 ft 433 kts 335°
2026-05-08 00:03 35.35265 -81.98509 34957 ft 432 kts 334°
2026-05-08 00:04 35.41207 -81.99606 34951 ft 432 kts 334°
2026-05-08 00:04 35.47151 -82.00702 34946 ft 432 kts 334°
2026-05-08 00:05 35.53092 -82.01797 34971 ft 431 kts 334°
2026-05-08 00:05 35.59031 -82.02890 34959 ft 431 kts 334°
2026-05-08 00:06 35.64955 -82.03982 34953 ft 430 kts 334°
2026-05-08 00:06 35.70875 -82.05073 34947 ft 430 kts 334°
2026-05-08 00:07 35.76787 -82.06172 34934 ft 430 kts 334°
2026-05-08 00:07 35.82708 -82.07279 34945 ft 431 kts 334°
2026-05-08 00:08 35.88639 -82.08381 34948 ft 430 kts 334°
2026-05-08 00:08 35.94525 -82.09471 34953 ft 430 kts 334°
2026-05-08 00:09 36.00446 -82.10574 35014 ft 430 kts 333°
2026-05-08 00:09 36.06344 -82.11669 34978 ft 428 kts 333°
2026-05-08 00:10 36.12229 -82.12765 34986 ft 428 kts 334°
2026-05-08 00:10 36.18126 -82.13870 34979 ft 428 kts 333°
2026-05-08 00:11 36.24013 -82.14973 34993 ft 428 kts 333°
2026-05-08 00:11 36.29902 -82.16076 35019 ft 428 kts 334°
2026-05-08 00:12 36.34790 -82.16995 35018 ft 427 kts 334°
2026-05-08 00:12 36.41626 -82.18285 35022 ft 427 kts 334°
2026-05-08 00:13 36.46559 -82.19210 35026 ft 427 kts 334°
2026-05-08 00:13 36.52384 -82.20303 35018 ft 424 kts 334°
2026-05-08 00:14 36.58198 -82.21398 35000 ft 422 kts 333°
2026-05-08 00:14 36.64005 -82.22507 35002 ft 422 kts 334°
2026-05-08 00:15 36.69812 -82.23620 34955 ft 421 kts 334°
2026-05-08 00:15 36.72705 -82.24169 34343 ft 420 kts 333°
2026-05-08 00:15 36.75611 -82.24720 33555 ft 422 kts 333°
2026-05-08 00:16 36.78523 -82.25274 32641 ft 424 kts 334°
2026-05-08 00:16 36.81444 -82.25829 31751 ft 426 kts 334°
2026-05-08 00:16 36.84382 -82.26390 30839 ft 428 kts 334°
2026-05-08 00:16 36.87338 -82.26957 29862 ft 431 kts 335°
2026-05-08 00:17 36.90320 -82.27531 28923 ft 432 kts 336°
2026-05-08 00:17 36.93238 -82.28067 28764 ft 415 kts 336°
2026-05-08 00:17 36.96045 -82.28564 28617 ft 400 kts 335°
2026-05-08 00:17 36.98724 -82.29042 28522 ft 387 kts 335°
2026-05-08 00:18 37.01358 -82.29534 28152 ft 379 kts 335°
2026-05-08 00:18 37.03954 -82.30042 27662 ft 376 kts 335°
2026-05-08 00:18 37.06520 -82.30556 27186 ft 372 kts 335°
2026-05-08 00:18 37.09071 -82.31067 26675 ft 370 kts 335°
2026-05-08 00:19 37.11607 -82.31568 26206 ft 368 kts 336°
2026-05-08 00:19 37.14131 -82.32061 25743 ft 366 kts 336°
2026-05-08 00:19 37.16643 -82.32549 25218 ft 365 kts 336°
2026-05-08 00:19 37.19150 -82.33033 24754 ft 363 kts 337°
2026-05-08 00:20 37.21639 -82.33511 24287 ft 362 kts 337°
2026-05-08 00:20 37.24119 -82.33989 23909 ft 359 kts 338°
2026-05-08 00:20 37.26580 -82.34461 23484 ft 356 kts 338°
2026-05-08 00:20 37.29021 -82.34928 22943 ft 354 kts 338°
2026-05-08 00:21 37.31452 -82.35394 22483 ft 352 kts 338°
2026-05-08 00:21 37.33864 -82.35860 22017 ft 350 kts 339°
2026-05-08 00:21 37.36257 -82.36324 21544 ft 346 kts 339°
2026-05-08 00:21 37.38633 -82.36786 21043 ft 344 kts 340°
2026-05-08 00:22 37.40998 -82.37242 20568 ft 342 kts 339°
2026-05-08 00:22 37.43348 -82.37696 20109 ft 340 kts 339°
2026-05-08 00:22 37.45679 -82.38142 19676 ft 336 kts 340°
2026-05-08 00:22 37.47993 -82.38587 19260 ft 336 kts 340°
2026-05-08 00:23 37.50288 -82.39031 18875 ft 333 kts 340°
2026-05-08 00:23 37.52568 -82.39473 18473 ft 330 kts 340°
2026-05-08 00:23 37.54832 -82.39915 18038 ft 329 kts 340°
2026-05-08 00:23 37.57086 -82.40358 17647 ft 326 kts 341°
2026-05-08 00:24 37.59311 -82.40796 17218 ft 323 kts 341°
2026-05-08 00:24 37.61532 -82.41192 16803 ft 325 kts 347°
2026-05-08 00:24 37.63836 -82.40927 16418 ft 338 kts 360°
2026-05-08 00:24 37.66138 -82.40390 16060 ft 335 kts
2026-05-08 00:25 37.68429 -82.39833 15657 ft 335 kts
2026-05-08 00:25 37.70681 -82.39280 15273 ft 334 kts
2026-05-08 00:25 37.72956 -82.38723 14925 ft 332 kts
2026-05-08 00:25 37.75216 -82.38173 14587 ft 330 kts
2026-05-08 00:26 37.77465 -82.37626 14216 ft 328 kts
2026-05-08 00:26 37.79703 -82.37083 13844 ft 327 kts
2026-05-08 00:26 37.81915 -82.36546 13197 ft 321 kts
2026-05-08 00:26 37.84098 -82.36017 12489 ft 317 kts
2026-05-08 00:27 37.86263 -82.35496 11978 ft 316 kts
2026-05-08 00:27 37.88420 -82.34980 11597 ft 314 kts
2026-05-08 00:27 37.90556 -82.34465 11215 ft 311 kts
2026-05-08 00:27 37.92679 -82.33953 10821 ft 309 kts
2026-05-08 00:28 37.94784 -82.33450 10450 ft 306 kts
2026-05-08 00:28 37.96874 -82.32951 10069 ft 304 kts
2026-05-08 00:28 37.98931 -82.32456 9868 ft 296 kts
2026-05-08 00:28 38.00919 -82.31969 9718 ft 288 kts
2026-05-08 00:29 38.02876 -82.31494 9586 ft 285 kts
2026-05-08 00:29 38.04821 -82.31027 9410 ft 284 kts
2026-05-08 00:29 38.06758 -82.30563 9116 ft 282 kts
2026-05-08 00:29 38.08681 -82.30098 8793 ft 281 kts
2026-05-08 00:30 38.10591 -82.29634 8293 ft 277 kts
2026-05-08 00:30 38.12473 -82.29181 7796 ft 274 kts
2026-05-08 00:30 38.14337 -82.28731 7321 ft 271 kts
2026-05-08 00:30 38.16179 -82.28287 6839 ft 267 kts
2026-05-08 00:31 38.17978 -82.27849 6374 ft 259 kts
2026-05-08 00:31 38.19724 -82.27417 5875 ft 253 kts
2026-05-08 00:31 38.21443 -82.26996 5384 ft 250 kts
2026-05-08 00:31 38.23125 -82.26581 4908 ft 243 kts
2026-05-08 00:32 38.24746 -82.26227 4417 ft 235 kts 359°
2026-05-08 00:32 38.26276 -82.26585 4191 ft 220 kts 333°
2026-05-08 00:32 38.27479 -82.27745 4055 ft 217 kts 308°
2026-05-08 00:32 38.28189 -82.29433 3993 ft 217 kts 293°
2026-05-08 00:33 38.28769 -82.31217 3996 ft 218 kts 294°
2026-05-08 00:33 38.29350 -82.33000 3999 ft 218 kts 294°
2026-05-08 00:33 38.29932 -82.34782 3999 ft 218 kts 294°
2026-05-08 00:33 38.30517 -82.36571 3879 ft 219 kts 294°
2026-05-08 00:34 38.31100 -82.38357 3612 ft 217 kts 294°
2026-05-08 00:34 38.31673 -82.40115 3346 ft 213 kts 294°
2026-05-08 00:34 38.32240 -82.41853 3062 ft 211 kts 294°
2026-05-08 00:34 38.32790 -82.43545 2781 ft 200 kts 294°
2026-05-08 00:35 38.33304 -82.45123 2515 ft 190 kts 294°
2026-05-08 00:35 38.33811 -82.46679 2261 ft 187 kts 294°
2026-05-08 00:35 38.34293 -82.48161 2044 ft 177 kts 294°
2026-05-08 00:35 38.34747 -82.49556 1794 ft 165 kts 294°
2026-05-08 00:36 38.35166 -82.50848 1587 ft 150 kts 294°
2026-05-08 00:36 38.35547 -82.52020 1367 ft 138 kts 294°
2026-05-08 00:36 38.35910 -82.53137 1187 ft 136 kts 295°
2026-05-08 00:36 38.36272 -82.54247 1011 ft 133 kts 294°
2026-05-08 00:37 38.36632 -82.55357 870 ft 135 kts 294°
2026-05-08 00:37 38.36997 -82.56503 1093 ft 153 kts 293°
2026-05-08 00:37 38.37500 -82.57716 1843 ft 157 kts 314°
2026-05-08 00:38 38.39630 -82.58146 3166 ft 193 kts 30°
2026-05-08 00:38 38.40663 -82.56872 3501 ft 218 kts 44°
2026-05-08 00:38 38.41700 -82.55409 3950 ft 227 kts 45°
2026-05-08 00:38 38.42741 -82.53917 4003 ft 224 kts 45°
2026-05-08 00:39 38.43776 -82.52437 4006 ft 223 kts 44°
2026-05-08 00:39 38.44796 -82.50946 4006 ft 224 kts 51°
2026-05-08 00:39 38.45266 -82.49067 4006 ft 237 kts 87°
2026-05-08 00:39 38.45157 -82.46979 3996 ft 233 kts 101°
2026-05-08 00:40 38.44550 -82.45061 3990 ft 235 kts 116°
2026-05-08 00:40 38.43787 -82.43215 3700 ft 235 kts 116°
2026-05-08 00:40 38.43029 -82.41374 3437 ft 233 kts 116°
2026-05-08 00:40 38.42216 -82.39589 3215 ft 233 kts 131°
2026-05-08 00:41 38.40909 -82.38446 2977 ft 230 kts 165°
2026-05-08 00:41 38.39350 -82.38402 2748 ft 223 kts 200°
2026-05-08 00:41 38.37949 -82.39168 2575 ft 215 kts 211°
2026-05-08 00:41 38.36698 -82.40108 2491 ft 201 kts 225°
2026-05-08 00:42 38.35843 -82.41352 2517 ft 176 kts 239°
2026-05-08 00:42 38.35202 -82.42571 2490 ft 155 kts 242°
2026-05-08 00:42 38.34626 -82.43695 2487 ft 147 kts 243°
2026-05-08 00:42 38.34080 -82.44761 2503 ft 141 kts 244°
2026-05-08 00:43 38.33780 -82.45906 2328 ft 135 kts 272°
2026-05-08 00:43 38.33933 -82.47054 2174 ft 131 kts 296°
2026-05-08 00:43 38.34285 -82.48130 2011 ft 133 kts 295°
2026-05-08 00:43 38.34638 -82.49220 1841 ft 133 kts 295°
2026-05-08 00:44 38.34991 -82.50306 1670 ft 133 kts 295°
2026-05-08 00:44 38.35341 -82.51394 1468 ft 132 kts 294°
2026-05-08 00:44 38.35692 -82.52479 1248 ft 133 kts 295°
2026-05-08 00:44 38.36048 -82.53563 1113 ft 134 kts 295°
2026-05-08 00:45 38.36405 -82.54662 952 ft 137 kts 293°
2026-05-08 00:45 38.36764 -82.55770 845 ft 133 kts 294°
2026-05-08 00:45 38.37122 -82.56914 1205 ft 147 kts 293°
2026-05-08 00:45 38.37546 -82.58092 2050 ft 147 kts 307°
2026-05-08 00:46 38.38440 -82.58671 2799 ft 157 kts 358°
2026-05-08 00:46 38.39489 -82.58042 3087 ft 183 kts 38°
2026-05-08 00:46 38.40390 -82.56770 3401 ft 204 kts 47°
2026-05-08 00:46 38.41309 -82.55286 3813 ft 221 kts 48°
2026-05-08 00:47 38.42275 -82.53713 4000 ft 225 kts 48°
2026-05-08 00:47 38.43223 -82.52170 4009 ft 224 kts 48°
2026-05-08 00:47 38.44179 -82.50611 4010 ft 223 kts 48°
2026-05-08 00:47 38.45091 -82.49015 4002 ft 225 kts 60°
2026-05-08 00:48 38.45391 -82.47063 4003 ft 230 kts 95°
2026-05-08 00:48 38.45004 -82.45067 4006 ft 233 kts 107°
2026-05-08 00:48 38.44468 -82.43114 3850 ft 233 kts 108°
2026-05-08 00:48 38.43909 -82.41178 3585 ft 232 kts 108°
2026-05-08 00:49 38.43341 -82.39251 3344 ft 231 kts 109°
2026-05-08 00:49 38.42743 -82.37355 3093 ft 230 kts 119°
2026-05-08 00:49 38.41657 -82.35929 2946 ft 221 kts 146°
2026-05-08 00:49 38.40343 -82.34997 2845 ft 213 kts 167°
2026-05-08 00:50 38.38915 -82.35019 2768 ft 204 kts 202°
2026-05-08 00:50 38.37623 -82.35732 2705 ft 202 kts 210°
2026-05-08 00:50 38.36416 -82.36629 2604 ft 199 kts 224°
2026-05-08 00:50 38.35431 -82.37839 2521 ft 196 kts 232°
2026-05-08 00:51 38.34512 -82.39121 2508 ft 196 kts 232°
2026-05-08 00:51 38.33605 -82.40406 2501 ft 195 kts 233°
2026-05-08 00:51 38.32940 -82.41846 2501 ft 189 kts 258°
2026-05-08 00:51 38.32847 -82.43465 2501 ft 182 kts 283°
2026-05-08 00:52 38.33256 -82.44991 2458 ft 183 kts 295°
2026-05-08 00:52 38.33734 -82.46450 2290 ft 172 kts 295°
2026-05-08 00:52 38.34175 -82.47801 2065 ft 157 kts 295°
2026-05-08 00:52 38.34568 -82.49010 1863 ft 141 kts 295°
2026-05-08 00:53 38.34934 -82.50134 1687 ft 135 kts 295°
2026-05-08 00:53 38.35291 -82.51232 1503 ft 133 kts 295°
2026-05-08 00:53 38.35645 -82.52319 1326 ft 133 kts 295°
2026-05-08 00:53 38.35997 -82.53408 1150 ft 132 kts 294°
2026-05-08 00:54 38.36353 -82.54503 973 ft 134 kts 295°
2026-05-08 00:54 38.36710 -82.55607 843 ft 131 kts 296°
2026-05-08 00:54 38.36979 -82.56426 840 ft 61 kts 292°
2026-05-08 00:54 38.37088 -82.56768 843 ft 37 kts 292°
2026-05-08 00:55 38.37176 -82.57036 845 ft 30 kts 292°
2026-05-08 00:55 38.37188 -82.57168 844 ft 13 kts 219°
2026-05-08 00:55 38.37108 -82.57202 844 ft 11 kts 170°
2026-05-08 00:55 38.37073 -82.57127 847 ft 10 kts 112°
2026-05-08 00:56 38.37048 -82.57053 842 ft 9 kts 113°
2026-05-08 00:56 38.37029 -82.56983 839 ft 9 kts 101°
2026-05-08 00:56 38.37007 -82.56899 841 ft 11 kts 113°
2026-05-08 00:56 38.36973 -82.56794 843 ft 15 kts 112°
2026-05-08 00:57 38.36930 -82.56661 843 ft 15 kts 112°
2026-05-08 00:57 38.36947 -82.56550 845 ft 13 kts 66°
2026-05-08 00:57 38.36988 -82.56461 841 ft 11 kts 39°
2026-05-08 00:57 38.37054 -82.56415 847 ft 11 kts 50°
2026-05-08 00:58 38.37045 -82.56334 839 ft 9 kts 111°
2026-05-08 00:58 38.37019 -82.56255 840 ft 12 kts 112°
2026-05-08 00:58 38.36981 -82.56135 845 ft 17 kts 112°
2026-05-08 00:58 38.36933 -82.55987 839 ft 18 kts 112°
2026-05-08 00:59 38.36886 -82.55843 839 ft 16 kts 111°
2026-05-08 00:59 38.36857 -82.55751 841 ft 10 kts 104°
2026-05-08 00:59 38.36863 -82.55689 847 ft 4 kts 55°
2026-05-08 00:59 38.36882 -82.55671 844 ft 3 kts 37°
2026-05-08 01:00 38.36887 -82.55662 847 ft 1 kts 54°
2026-05-08 01:00 38.36891 -82.55656 848 ft 0 kts 56°
2026-05-08 01:00 38.36895 -82.55646 841 ft 1 kts 62°
2026-05-08 01:00 38.36895 -82.55645 841 ft 0 kts 62°